Location: Huppendorf
(49.9333°N, 11.1500°E)
Time: 18:38:34
(UTC+00:00)

Gbstr 26 Del rocket - Pass Details

Date: 27 February 2020
Orbit: 492 x 1264 km, 51.8° (Epoch: 27 March)

Event Time Altitude Azimuth Distance (km) Brightness Sun altitude
Rises 18:54:51 0° 249° (WSW) 2,685 7.3 -20.2°
Reaches altitude 10° 18:56:54 10° 248° (WSW) 1,859 6.3 -20.6°
Maximum altitude 19:01:06 85° 160° (SSE) 644 3.0 -21.2°
Enters shadow 19:02:08 55° 78° (ENE) 794 3.2 -21.4°
